星链-11140 [DTC] (STARLINK-11140 [DTC] )

导读 | 星芒AI

STARLINK-11140 [DTC] 是 SpaceX Starlink 项目中的一颗低轨通信卫星,属于第 5 批组网发射的卫星之一。该卫星运行在约 550 公里的轨道高度,旨在为全球提供高速互联网服务。DTC(Direct to Cell)功能使其能够支持与蜂窝设备的直接通信,提升偏远地区的网络覆盖。该卫星采用可再生太阳能供电,并具备自主变轨和避碰能力,是 SpaceX 构建全球宽带网络的重要组成部分。

基本信息
目录编号:
60039
目录名称:
STARLINK-11140
国际标识:
2024-112B
轨道中心:
EARTH
卫星名称:
星链-11140 [DTC]
卫星全名:
星链-11140 [DTC] (STARLINK-11140 [DTC] )
卫星状态:
在轨 (已飞行508 天)
发射日期:
2024-06-08 UTC
国别 :
美国 (US)
星等 :
--
轨道信息
数据来源 国际轨道数据
星历时间: 2025-10-28T07:30:30+0800
1天前
查看轨道信息
半长轴: 6737.861km
偏心率: 0.0001026
轨道倾角: 53.160°
近地点辐角 79.756°
升交点赤经 200.757°
平近点角 280.357°
近地点: 359.034km
远地点: 360.418km
周期: 91.737分钟
每日圈数: 15.697111
详细信息
固有亮度:
5
最大亮度:
0.3
卫星平台:
Starlink v2.0 mini
覆盖范围:
全球
运营商:
太空探索技术公司
运营商所在国:
美国
制造商(研发单位):
太空探索技术公司
制造商所在国:
美国
使用方式:
暂无
卫星简介
星链(Starlink)计划是由太空探索技术公司(SpaceX)提出的一个巨型低轨卫星互联网星座项目,计划在2019年至2024年间在太空搭建由约1.2万颗卫星组成的“星链”网络,其中1584颗将部署在地球上空550千米处的近地轨道,并从2020年开始工作。该卫星仍在工作。
2D轨道图
3D轨道图
轨道高度分析图
轨道倾角分析图
轨道综合分析图
查看轨道综合分析图